User: anonymous   Login
Location: Caltech
(34.1382°N, 118.1253°W)
Time: 22:35:47
(UTC-07:00)
Language:

ASTRO E2 - Orbit

View from above orbital plane
View from above orbital plane
View from above satellite
View from above satellite

Ground track
Ground track

The orbit data is extracted from the following two-line orbital elements,

1 28773U 05025A   14302.70137065  .00007491  00000-0  44496-3 0  3993
2 28773 031.3841 033.0067 0005595 087.9989 039.2813 15.09993934511535
Epoch (UTC): 29 October 2014 16:49:58
Eccentricity: 0.0005595
inclination: 31.3841°
perigee height: 532 km
apogee height: 540 km
right ascension of ascending node: 33.0067°
argument of perigee: 87.9989°
revolutions per day: 15.09993934
mean anomaly at epoch: 39.2813°
orbit number at epoch: 51153

The dashed part of the orbit path shows where the satellite is in the earth's shadow,  

DLR